Location: Baix
(44.7118°N, 4.7648°E)
Time: 03:21:07
(UTC+00:00)

FALCON 9 DEB - Pass Details

Date: 07 August 2020
Orbit: 427 x 441 km, 53.0° (Epoch: 25 September)

Event Time Altitude Azimuth Distance (km) Brightness Sun altitude
Rises 03:23:21 0° 302° (WNW) 2,431 6.7 -11.6°
Reaches altitude 10° 03:25:29 10° 301° (WNW) 1,556 5.7 -11.3°
Maximum altitude 03:28:58 77° 216° (SW) 454 3.0 -10.9°
Drops below altitude 10° 03:32:26 10° 130° (SE) 1,540 6.1 -10.4°
Sets 03:34:32 0° 129° (SE) 2,402 7.1 -10.1°
